owner,sensor,date,latitude,longitude,relative_humidity,qcFlag 
COMPS,ioos:station:USF.COMPS:SHP:1,2019-05-10T15:54:00,30.0600,-84.2910,74.25,11111222 
COMPS,ioos:station:USF.COMPS:SHP:1,2019-05-10T16:54:00,30.0600,-84.2910,73.42,11111222 
COMPS,ioos:station:USF.COMPS:SHP:1,2019-05-10T17:54:00,30.0600,-84.2910,74.19,11111222 
COMPS,ioos:station:USF.COMPS:SHP:1,2019-05-10T18:54:00,30.0600,-84.2910,71.57,11111222 
COMPS,ioos:station:USF.COMPS:SHP:1,2019-05-10T19:54:00,30.0600,-84.2910,71.51,11111222 
COMPS,ioos:station:USF.COMPS:SHP:1,2019-05-10T20:54:00,30.0600,-84.2910,74.99,11111222 
COMPS,ioos:station:USF.COMPS:SHP:1,2019-05-10T21:54:00,30.0600,-84.2910,73.77,11111222 
COMPS,ioos:station:USF.COMPS:SHP:1,2019-05-10T22:54:00,30.0600,-84.2910,72.07,11111222 
COMPS,ioos:station:USF.COMPS:SHP:1,2019-05-10T23:54:00,30.0600,-84.2910,73.65,11111222 
COMPS,ioos:station:USF.COMPS:SHP:1,2019-05-11T00:54:00,30.0600,-84.2910,77.58,11111222 
COMPS,ioos:station:USF.COMPS:SHP:1,2019-05-11T01:54:00,30.0600,-84.2910,77.49,11111222 
COMPS,ioos:station:USF.COMPS:SHP:1,2019-05-11T02:54:00,30.0600,-84.2910,77.39,11111222 
COMPS,ioos:station:USF.COMPS:SHP:1,2019-05-11T03:54:00,30.0600,-84.2910,0.68,11111222 
COMPS,ioos:station:USF.COMPS:SHP:1,2019-05-11T04:54:00,30.0600,-84.2910,0.72,11111222 
COMPS,ioos:station:USF.COMPS:SHP:1,2019-05-11T05:54:00,30.0600,-84.2910,0.67,11111222 
COMPS,ioos:station:USF.COMPS:SHP:1,2019-05-11T06:54:00,30.0600,-84.2910,0.8,11111222 
COMPS,ioos:station:USF.COMPS:SHP:1,2019-05-11T07:54:00,30.0600,-84.2910,83.8,11111222 
COMPS,ioos:station:USF.COMPS:SHP:1,2019-05-11T08:54:00,30.0600,-84.2910,75.8,11111222 
COMPS,ioos:station:USF.COMPS:SHP:1,2019-05-11T09:54:00,30.0600,-84.2910,17.29,11111222 
COMPS,ioos:station:USF.COMPS:SHP:1,2019-05-11T10:54:00,30.0600,-84.2910,0.67,11111222 
COMPS,ioos:station:USF.COMPS:SHP:1,2019-05-11T11:54:00,30.0600,-84.2910,0.8,11111222 
COMPS,ioos:station:USF.COMPS:SHP:1,2019-05-13T12:54:00,30.0600,-84.2910,0.67,11111222 
COMPS,ioos:station:USF.COMPS:SHP:1,2019-05-13T13:54:00,30.0600,-84.2910,0.67,11111222 
COMPS,ioos:station:USF.COMPS:SHP:1,2019-05-13T14:54:00,30.0600,-84.2910,0.78,11111222 
COMPS,ioos:station:USF.COMPS:SHP:1,2019-05-13T15:54:00,30.0600,-84.2910,0.67,11111222 
COMPS,ioos:station:USF.COMPS:SHP:1,2019-05-13T16:54:00,30.0600,-84.2910,69.5,11111222 
COMPS,ioos:station:USF.COMPS:SHP:1,2019-05-13T17:54:00,30.0600,-84.2910,69.11,11111222 
COMPS,ioos:station:USF.COMPS:SHP:1,2019-05-13T18:54:00,30.0600,-84.2910,68.22,11111222 
COMPS,ioos:station:USF.COMPS:SHP:1,2019-05-13T19:54:00,30.0600,-84.2910,62.71,11111222 
COMPS,ioos:station:USF.COMPS:SHP:1,2019-05-13T20:54:00,30.0600,-84.2910,69.44,11111222 
COMPS,ioos:station:USF.COMPS:SHP:1,2019-05-13T21:54:00,30.0600,-84.2910,71.29,11111222 
COMPS,ioos:station:USF.COMPS:SHP:1,2019-05-13T22:54:00,30.0600,-84.2910,74.1,11111222 
COMPS,ioos:station:USF.COMPS:SHP:1,2019-05-13T23:54:00,30.0600,-84.2910,76.56,11111222 
COMPS,ioos:station:USF.COMPS:SHP:1,2019-05-14T00:54:00,30.0600,-84.2910,0.76,11111222 
COMPS,ioos:station:USF.COMPS:SHP:1,2019-05-14T01:54:00,30.0600,-84.2910,0.67,11111222 
COMPS,ioos:station:USF.COMPS:SHP:1,2019-05-14T02:54:00,30.0600,-84.2910,71.58,11111222 
COMPS,ioos:station:USF.COMPS:SHP:1,2019-05-14T03:54:00,30.0600,-84.2910,70.27,11111222 
COMPS,ioos:station:USF.COMPS:SHP:1,2019-05-14T04:54:00,30.0600,-84.2910,71.44,11111222 
COMPS,ioos:station:USF.COMPS:SHP:1,2019-05-14T05:54:00,30.0600,-84.2910,72.28,11111222 
COMPS,ioos:station:USF.COMPS:SHP:1,2019-05-14T06:54:00,30.0600,-84.2910,68.74,11111222 
COMPS,ioos:station:USF.COMPS:SHP:1,2019-05-14T07:54:00,30.0600,-84.2910,68.95,11111222 
COMPS,ioos:station:USF.COMPS:SHP:1,2019-05-14T08:54:00,30.0600,-84.2910,68.24,11111222 
COMPS,ioos:station:USF.COMPS:SHP:1,2019-05-14T09:54:00,30.0600,-84.2910,71.98,11111222 
COMPS,ioos:station:USF.COMPS:SHP:1,2019-05-14T10:54:00,30.0600,-84.2910,74.53,11111222 
COMPS,ioos:station:USF.COMPS:SHP:1,2019-05-14T11:54:00,30.0600,-84.2910,68.93,11111222 
COMPS,ioos:station:USF.COMPS:SHP:1,2019-05-14T12:54:00,30.0600,-84.2910,60.17,11111222 
COMPS,ioos:station:USF.COMPS:SHP:1,2019-05-14T13:54:00,30.0600,-84.2910,55.78,11111222 
COMPS,ioos:station:USF.COMPS:SHP:1,2019-05-14T14:54:00,30.0600,-84.2910,49.22,11111222 
COMPS,ioos:station:USF.COMPS:SHP:1,2019-05-14T15:54:00,30.0600,-84.2910,45.05,11111222 
COMPS,ioos:station:USF.COMPS:SHP:1,2019-05-14T16:54:00,30.0600,-84.2910,42.62,11111222 
COMPS,ioos:station:USF.COMPS:SHP:1,2019-05-14T17:54:00,30.0600,-84.2910,44.74,11111222 
COMPS,ioos:station:USF.COMPS:SHP:1,2019-05-14T18:54:00,30.0600,-84.2910,52.87,11111222 
COMPS,ioos:station:USF.COMPS:SHP:1,2019-05-14T19:54:00,30.0600,-84.2910,51.81,11111222 
COMPS,ioos:station:USF.COMPS:SHP:1,2019-05-14T20:54:00,30.0600,-84.2910,51.34,11111222 
COMPS,ioos:station:USF.COMPS:SHP:1,2019-05-14T21:54:00,30.0600,-84.2910,55.79,11111222 
COMPS,ioos:station:USF.COMPS:SHP:1,2019-05-14T22:54:00,30.0600,-84.2910,59.88,11111222 
COMPS,ioos:station:USF.COMPS:SHP:1,2019-05-14T23:54:00,30.0600,-84.2910,62.36,11111222 
COMPS,ioos:station:USF.COMPS:SHP:1,2019-05-15T00:54:00,30.0600,-84.2910,61.91,11111222 
COMPS,ioos:station:USF.COMPS:SHP:1,2019-05-15T01:54:00,30.0600,-84.2910,60.05,11111222 
COMPS,ioos:station:USF.COMPS:SHP:1,2019-05-15T02:54:00,30.0600,-84.2910,65.25,11111222 
COMPS,ioos:station:USF.COMPS:SHP:1,2019-05-15T03:54:00,30.0600,-84.2910,67.78,11111222 
COMPS,ioos:station:USF.COMPS:SHP:1,2019-05-15T04:54:00,30.0600,-84.2910,70.41,11111222 
COMPS,ioos:station:USF.COMPS:SHP:1,2019-05-15T05:54:00,30.0600,-84.2910,73.67,11111222 
COMPS,ioos:station:USF.COMPS:SHP:1,2019-05-15T06:54:00,30.0600,-84.2910,76.24,11111222 
COMPS,ioos:station:USF.COMPS:SHP:1,2019-05-15T07:54:00,30.0600,-84.2910,73.65,11111222 
COMPS,ioos:station:USF.COMPS:SHP:1,2019-05-15T08:54:00,30.0600,-84.2910,76.55,11111222 
COMPS,ioos:station:USF.COMPS:SHP:1,2019-05-15T09:54:00,30.0600,-84.2910,74.27,11111222 
COMPS,ioos:station:USF.COMPS:SHP:1,2019-05-15T10:54:00,30.0600,-84.2910,70.55,11111222 
COMPS,ioos:station:USF.COMPS:SHP:1,2019-05-15T11:54:00,30.0600,-84.2910,68.28,11111222 
COMPS,ioos:station:USF.COMPS:SHP:1,2019-05-15T12:54:00,30.0600,-84.2910,60.34,11111222 
COMPS,ioos:station:USF.COMPS:SHP:1,2019-05-15T13:54:00,30.0600,-84.2910,51.77,11111222 
COMPS,ioos:station:USF.COMPS:SHP:1,2019-05-15T14:54:00,30.0600,-84.2910,44.42,11111222 
COMPS,ioos:station:USF.COMPS:SHP:1,2019-05-15T15:54:00,30.0600,-84.2910,42.89,11111222 
COMPS,ioos:station:USF.COMPS:SHP:1,2019-05-15T16:54:00,30.0600,-84.2910,41.28,11111222 
COMPS,ioos:station:USF.COMPS:SHP:1,2019-05-15T17:54:00,30.0600,-84.2910,41.62,11111222 
COMPS,ioos:station:USF.COMPS:SHP:1,2019-05-15T18:54:00,30.0600,-84.2910,42.96,11111222 
COMPS,ioos:station:USF.COMPS:SHP:1,2019-05-15T19:54:00,30.0600,-84.2910,41.68,11111222 
COMPS,ioos:station:USF.COMPS:SHP:1,2019-05-15T20:54:00,30.0600,-84.2910,44.53,11111222 
COMPS,ioos:station:USF.COMPS:SHP:1,2019-05-15T21:54:00,30.0600,-84.2910,45.23,11111222 
COMPS,ioos:station:USF.COMPS:SHP:1,2019-05-15T22:54:00,30.0600,-84.2910,45.75,11111222 
COMPS,ioos:station:USF.COMPS:SHP:1,2019-05-15T23:54:00,30.0600,-84.2910,49.84,11111222 
COMPS,ioos:station:USF.COMPS:SHP:1,2019-05-16T00:54:00,30.0600,-84.2910,52.62,11111222 
COMPS,ioos:station:USF.COMPS:SHP:1,2019-05-16T01:54:00,30.0600,-84.2910,55.51,11111222 
COMPS,ioos:station:USF.COMPS:SHP:1,2019-05-16T02:54:00,30.0600,-84.2910,60.92,11111222 
COMPS,ioos:station:USF.COMPS:SHP:1,2019-05-16T03:54:00,30.0600,-84.2910,63.76,11111222 
COMPS,ioos:station:USF.COMPS:SHP:1,2019-05-16T04:54:00,30.0600,-84.2910,64.19,11111222 
COMPS,ioos:station:USF.COMPS:SHP:1,2019-05-16T05:54:00,30.0600,-84.2910,65.33,11111222 
COMPS,ioos:station:USF.COMPS:SHP:1,2019-05-16T06:54:00,30.0600,-84.2910,65.95,11111222 
COMPS,ioos:station:USF.COMPS:SHP:1,2019-05-16T07:54:00,30.0600,-84.2910,70.52,11111222 
COMPS,ioos:station:USF.COMPS:SHP:1,2019-05-16T08:54:00,30.0600,-84.2910,74.17,11111222 
COMPS,ioos:station:USF.COMPS:SHP:1,2019-05-16T09:54:00,30.0600,-84.2910,71.45,11111222 
COMPS,ioos:station:USF.COMPS:SHP:1,2019-05-16T10:54:00,30.0600,-84.2910,76.79,11111222 
COMPS,ioos:station:USF.COMPS:SHP:1,2019-05-16T11:54:00,30.0600,-84.2910,76.86,11111222 
COMPS,ioos:station:USF.COMPS:SHP:1,2019-05-16T12:54:00,30.0600,-84.2910,72.93,11111222 
COMPS,ioos:station:USF.COMPS:SHP:1,2019-05-16T13:54:00,30.0600,-84.2910,72.23,11111222 
COMPS,ioos:station:USF.COMPS:SHP:1,2019-05-16T14:54:00,30.0600,-84.2910,67.26,11111222 
COMPS,ioos:station:USF.COMPS:SHP:1,2019-05-16T15:54:00,30.0600,-84.2910,65.88,11111222 
COMPS,ioos:station:USF.COMPS:SHP:1,2019-05-16T16:54:00,30.0600,-84.2910,64.1,11111222 
COMPS,ioos:station:USF.COMPS:SHP:1,2019-05-16T17:54:00,30.0600,-84.2910,59.35,11111222 
COMPS,ioos:station:USF.COMPS:SHP:1,2019-05-16T18:54:00,30.0600,-84.2910,59.25,11111222 
COMPS,ioos:station:USF.COMPS:SHP:1,2019-05-16T19:54:00,30.0600,-84.2910,60.46,11111222 
COMPS,ioos:station:USF.COMPS:SHP:1,2019-05-16T20:54:00,30.0600,-84.2910,62.29,11111222 
COMPS,ioos:station:USF.COMPS:SHP:1,2019-05-16T21:54:00,30.0600,-84.2910,60.75,11111222 
COMPS,ioos:station:USF.COMPS:SHP:1,2019-05-16T22:54:00,30.0600,-84.2910,61.05,11111222 
COMPS,ioos:station:USF.COMPS:SHP:1,2019-05-16T23:54:00,30.0600,-84.2910,65.85,11111222 
COMPS,ioos:station:USF.COMPS:SHP:1,2019-05-17T00:54:00,30.0600,-84.2910,67.11,11111222 
COMPS,ioos:station:USF.COMPS:SHP:1,2019-05-17T01:54:00,30.0600,-84.2910,65.58,11111222 
COMPS,ioos:station:USF.COMPS:SHP:1,2019-05-17T02:54:00,30.0600,-84.2910,64.69,11111222 
COMPS,ioos:station:USF.COMPS:SHP:1,2019-05-17T03:54:00,30.0600,-84.2910,68.81,11111222 
COMPS,ioos:station:USF.COMPS:SHP:1,2019-05-17T04:54:00,30.0600,-84.2910,71.26,11111222 
COMPS,ioos:station:USF.COMPS:SHP:1,2019-05-17T05:54:00,30.0600,-84.2910,72.17,11111222 
COMPS,ioos:station:USF.COMPS:SHP:1,2019-05-17T06:54:00,30.0600,-84.2910,70.09,11111222 
COMPS,ioos:station:USF.COMPS:SHP:1,2019-05-17T07:54:00,30.0600,-84.2910,69.65,11111222 
COMPS,ioos:station:USF.COMPS:SHP:1,2019-05-17T08:54:00,30.0600,-84.2910,70.0,11111222 
COMPS,ioos:station:USF.COMPS:SHP:1,2019-05-17T09:54:00,30.0600,-84.2910,68.65,11111222 
COMPS,ioos:station:USF.COMPS:SHP:1,2019-05-17T10:54:00,30.0600,-84.2910,62.63,11111222 
COMPS,ioos:station:USF.COMPS:SHP:1,2019-05-17T11:54:00,30.0600,-84.2910,68.12,11111222 
COMPS,ioos:station:USF.COMPS:SHP:1,2019-05-17T12:54:00,30.0600,-84.2910,64.26,11111222 
COMPS,ioos:station:USF.COMPS:SHP:1,2019-05-17T13:54:00,30.0600,-84.2910,65.02,11111222 
COMPS,ioos:station:USF.COMPS:SHP:1,2019-05-17T14:54:00,30.0600,-84.2910,68.3,11111222 
COMPS,ioos:station:USF.COMPS:SHP:1,2019-05-17T15:54:00,30.0600,-84.2910,69.31,11111222 
COMPS,ioos:station:USF.COMPS:SHP:1,2019-05-17T16:54:00,30.0600,-84.2910,70.56,11111222 
COMPS,ioos:station:USF.COMPS:SHP:1,2019-05-17T17:54:00,30.0600,-84.2910,68.07,11111222 
COMPS,ioos:station:USF.COMPS:SHP:1,2019-05-17T18:54:00,30.0600,-84.2910,68.63,11111222 
COMPS,ioos:station:USF.COMPS:SHP:1,2019-05-17T19:54:00,30.0600,-84.2910,71.52,11111222 
COMPS,ioos:station:USF.COMPS:SHP:1,2019-05-17T20:54:00,30.0600,-84.2910,69.34,11111222 
COMPS,ioos:station:USF.COMPS:SHP:1,2019-05-17T21:54:00,30.0600,-84.2910,72.15,11111222 
COMPS,ioos:station:USF.COMPS:SHP:1,2019-05-17T22:54:00,30.0600,-84.2910,70.23,11111222 
COMPS,ioos:station:USF.COMPS:SHP:1,2019-05-17T23:54:00,30.0600,-84.2910,73.11,11111222 
COMPS,ioos:station:USF.COMPS:SHP:1,2019-05-18T00:54:00,30.0600,-84.2910,76.34,11111222 
COMPS,ioos:station:USF.COMPS:SHP:1,2019-05-18T01:54:00,30.0600,-84.2910,92.57,11111222 
COMPS,ioos:station:USF.COMPS:SHP:1,2019-05-18T02:54:00,30.0600,-84.2910,0.67,11111222 
COMPS,ioos:station:USF.COMPS:SHP:1,2019-05-18T03:54:00,30.0600,-84.2910,0.79,11111222 
COMPS,ioos:station:USF.COMPS:SHP:1,2019-05-18T04:54:00,30.0600,-84.2910,0.67,11111222 
COMPS,ioos:station:USF.COMPS:SHP:1,2019-05-18T05:54:00,30.0600,-84.2910,0.72,11111222 
COMPS,ioos:station:USF.COMPS:SHP:1,2019-05-18T06:54:00,30.0600,-84.2910,0.67,11111222 
COMPS,ioos:station:USF.COMPS:SHP:1,2019-05-18T07:54:00,30.0600,-84.2910,0.67,11111222 
COMPS,ioos:station:USF.COMPS:SHP:1,2019-05-18T08:54:00,30.0600,-84.2910,0.77,11111222 
COMPS,ioos:station:USF.COMPS:SHP:1,2019-05-18T09:54:00,30.0600,-84.2910,0.67,11111222 
COMPS,ioos:station:USF.COMPS:SHP:1,2019-05-18T10:54:00,30.0600,-84.2910,0.68,11111222 
COMPS,ioos:station:USF.COMPS:SHP:1,2019-05-18T11:54:00,30.0600,-84.2910,0.67,11111222 
COMPS,ioos:station:USF.COMPS:SHP:1,2019-05-18T12:54:00,30.0600,-84.2910,0.67,11111222 
COMPS,ioos:station:USF.COMPS:SHP:1,2019-05-18T13:54:00,30.0600,-84.2910,81.33,11111222 
COMPS,ioos:station:USF.COMPS:SHP:1,2019-05-18T14:54:00,30.0600,-84.2910,71.77,11111222 
COMPS,ioos:station:USF.COMPS:SHP:1,2019-05-18T15:54:00,30.0600,-84.2910,72.21,11111222 
COMPS,ioos:station:USF.COMPS:SHP:1,2019-05-18T16:54:00,30.0600,-84.2910,70.06,11111222 
COMPS,ioos:station:USF.COMPS:SHP:1,2019-05-18T17:54:00,30.0600,-84.2910,69.19,11111222 
COMPS,ioos:station:USF.COMPS:SHP:1,2019-05-18T18:54:00,30.0600,-84.2910,69.66,11111222 
COMPS,ioos:station:USF.COMPS:SHP:1,2019-05-18T19:54:00,30.0600,-84.2910,68.26,11111222 
COMPS,ioos:station:USF.COMPS:SHP:1,2019-05-18T20:54:00,30.0600,-84.2910,64.22,11111222 
COMPS,ioos:station:USF.COMPS:SHP:1,2019-05-18T21:54:00,30.0600,-84.2910,66.03,11111222 
COMPS,ioos:station:USF.COMPS:SHP:1,2019-05-18T22:54:00,30.0600,-84.2910,66.83,11111222 
COMPS,ioos:station:USF.COMPS:SHP:1,2019-05-18T23:54:00,30.0600,-84.2910,66.99,11111222 
COMPS,ioos:station:USF.COMPS:SHP:1,2019-05-19T00:54:00,30.0600,-84.2910,68.89,11111222 
COMPS,ioos:station:USF.COMPS:SHP:1,2019-05-19T01:54:00,30.0600,-84.2910,70.73,11111222 
COMPS,ioos:station:USF.COMPS:SHP:1,2019-05-19T02:54:00,30.0600,-84.2910,72.32,11111222 
COMPS,ioos:station:USF.COMPS:SHP:1,2019-05-19T03:54:00,30.0600,-84.2910,72.86,11111222 
COMPS,ioos:station:USF.COMPS:SHP:1,2019-05-19T04:54:00,30.0600,-84.2910,74.9,11111222 
COMPS,ioos:station:USF.COMPS:SHP:1,2019-05-19T05:54:00,30.0600,-84.2910,0.67,11111222 
COMPS,ioos:station:USF.COMPS:SHP:1,2019-05-19T06:54:00,30.0600,-84.2910,0.76,11111222 
COMPS,ioos:station:USF.COMPS:SHP:1,2019-05-19T07:54:00,30.0600,-84.2910,0.67,11111222 
COMPS,ioos:station:USF.COMPS:SHP:1,2019-05-19T08:54:00,30.0600,-84.2910,0.67,11111222 
COMPS,ioos:station:USF.COMPS:SHP:1,2019-05-19T09:54:00,30.0600,-84.2910,0.74,11111222 
COMPS,ioos:station:USF.COMPS:SHP:1,2019-05-19T10:54:00,30.0600,-84.2910,77.1,11111222 
COMPS,ioos:station:USF.COMPS:SHP:1,2019-05-19T11:54:00,30.0600,-84.2910,69.93,11111222 
COMPS,ioos:station:USF.COMPS:SHP:1,2019-05-19T12:54:00,30.0600,-84.2910,66.43,11111222 
COMPS,ioos:station:USF.COMPS:SHP:1,2019-05-19T13:54:00,30.0600,-84.2910,68.04,11111222 
COMPS,ioos:station:USF.COMPS:SHP:1,2019-05-19T14:54:00,30.0600,-84.2910,69.36,11111222 
COMPS,ioos:station:USF.COMPS:SHP:1,2019-05-19T15:54:00,30.0600,-84.2910,68.67,11111222 
COMPS,ioos:station:USF.COMPS:SHP:1,2019-05-19T16:54:00,30.0600,-84.2910,68.9,11111222 
COMPS,ioos:station:USF.COMPS:SHP:1,2019-05-19T17:54:00,30.0600,-84.2910,70.59,11111222 
COMPS,ioos:station:USF.COMPS:SHP:1,2019-05-19T18:54:00,30.0600,-84.2910,68.17,11111222 
COMPS,ioos:station:USF.COMPS:SHP:1,2019-05-19T19:54:00,30.0600,-84.2910,68.47,11111222 
COMPS,ioos:station:USF.COMPS:SHP:1,2019-05-19T20:54:00,30.0600,-84.2910,67.96,11111222 
COMPS,ioos:station:USF.COMPS:SHP:1,2019-05-19T21:54:00,30.0600,-84.2910,67.08,11111222 
COMPS,ioos:station:USF.COMPS:SHP:1,2019-05-19T22:54:00,30.0600,-84.2910,60.81,11111222 
COMPS,ioos:station:USF.COMPS:SHP:1,2019-05-19T23:54:00,30.0600,-84.2910,68.47,11111222 
COMPS,ioos:station:USF.COMPS:SHP:1,2019-05-20T00:54:00,30.0600,-84.2910,70.55,11111222 
COMPS,ioos:station:USF.COMPS:SHP:1,2019-05-20T01:54:00,30.0600,-84.2910,79.93,11111222 
COMPS,ioos:station:USF.COMPS:SHP:1,2019-05-20T02:54:00,30.0600,-84.2910,50.46,11111222 
COMPS,ioos:station:USF.COMPS:SHP:1,2019-05-20T03:54:00,30.0600,-84.2910,0.67,11111222 
COMPS,ioos:station:USF.COMPS:SHP:1,2019-05-20T04:54:00,30.0600,-84.2910,0.67,11111222 
COMPS,ioos:station:USF.COMPS:SHP:1,2019-05-20T05:54:00,30.0600,-84.2910,0.67,11111222 
COMPS,ioos:station:USF.COMPS:SHP:1,2019-05-20T06:54:00,30.0600,-84.2910,0.75,11111222 
COMPS,ioos:station:USF.COMPS:SHP:1,2019-05-20T07:54:00,30.0600,-84.2910,0.67,11111222 
COMPS,ioos:station:USF.COMPS:SHP:1,2019-05-20T08:54:00,30.0600,-84.2910,0.75,11111222 
COMPS,ioos:station:USF.COMPS:SHP:1,2019-05-20T09:54:00,30.0600,-84.2910,0.67,11111222 
COMPS,ioos:station:USF.COMPS:SHP:1,2019-05-20T10:54:00,30.0600,-84.2910,0.68,11111222 
COMPS,ioos:station:USF.COMPS:SHP:1,2019-05-20T11:54:00,30.0600,-84.2910,0.71,11111222 
COMPS,ioos:station:USF.COMPS:SHP:1,2019-05-20T12:54:00,30.0600,-84.2910,0.67,11111222 
COMPS,ioos:station:USF.COMPS:SHP:1,2019-05-20T13:54:00,30.0600,-84.2910,0.76,11111222 
COMPS,ioos:station:USF.COMPS:SHP:1,2019-05-20T14:54:00,30.0600,-84.2910,70.42,11111222 
COMPS,ioos:station:USF.COMPS:SHP:1,2019-05-20T15:54:00,30.0600,-84.2910,62.31,11111222 
COMPS,ioos:station:USF.COMPS:SHP:1,2019-05-20T16:54:00,30.0600,-84.2910,52.94,11111222 
COMPS,ioos:station:USF.COMPS:SHP:1,2019-05-20T17:54:00,30.0600,-84.2910,58.93,11111222 
COMPS,ioos:station:USF.COMPS:SHP:1,2019-05-20T18:54:00,30.0600,-84.2910,59.88,11111222 
COMPS,ioos:station:USF.COMPS:SHP:1,2019-05-20T19:54:00,30.0600,-84.2910,53.95,11111222 
COMPS,ioos:station:USF.COMPS:SHP:1,2019-05-20T20:54:00,30.0600,-84.2910,54.01,11111222 
COMPS,ioos:station:USF.COMPS:SHP:1,2019-05-20T21:54:00,30.0600,-84.2910,47.38,11111222 
COMPS,ioos:station:USF.COMPS:SHP:1,2019-05-20T22:54:00,30.0600,-84.2910,44.2,11111222 
COMPS,ioos:station:USF.COMPS:SHP:1,2019-05-20T23:54:00,30.0600,-84.2910,45.38,11111222 
COMPS,ioos:station:USF.COMPS:SHP:1,2019-05-21T00:54:00,30.0600,-84.2910,50.15,11111222 
COMPS,ioos:station:USF.COMPS:SHP:1,2019-05-21T01:54:00,30.0600,-84.2910,55.16,11111222 
COMPS,ioos:station:USF.COMPS:SHP:1,2019-05-21T02:54:00,30.0600,-84.2910,61.45,11111222 
COMPS,ioos:station:USF.COMPS:SHP:1,2019-05-21T03:54:00,30.0600,-84.2910,65.9,11111222 
COMPS,ioos:station:USF.COMPS:SHP:1,2019-05-21T04:54:00,30.0600,-84.2910,69.39,11111222 
COMPS,ioos:station:USF.COMPS:SHP:1,2019-05-21T05:54:00,30.0600,-84.2910,73.92,11111222 
COMPS,ioos:station:USF.COMPS:SHP:1,2019-05-21T06:54:00,30.0600,-84.2910,75.81,11111222 
COMPS,ioos:station:USF.COMPS:SHP:1,2019-05-21T07:54:00,30.0600,-84.2910,3.46,11111222 
COMPS,ioos:station:USF.COMPS:SHP:1,2019-05-21T08:54:00,30.0600,-84.2910,0.67,11111222 
COMPS,ioos:station:USF.COMPS:SHP:1,2019-05-21T09:54:00,30.0600,-84.2910,0.77,11111222 
COMPS,ioos:station:USF.COMPS:SHP:1,2019-05-21T10:54:00,30.0600,-84.2910,0.67,11111222 
COMPS,ioos:station:USF.COMPS:SHP:1,2019-05-21T11:54:00,30.0600,-84.2910,0.7,11111222 
COMPS,ioos:station:USF.COMPS:SHP:1,2019-05-21T12:54:00,30.0600,-84.2910,92.59,11111222 
COMPS,ioos:station:USF.COMPS:SHP:1,2019-05-21T13:54:00,30.0600,-84.2910,67.4,11111222 
COMPS,ioos:station:USF.COMPS:SHP:1,2019-05-21T14:54:00,30.0600,-84.2910,65.42,11111222 
COMPS,ioos:station:USF.COMPS:SHP:1,2019-05-21T15:54:00,30.0600,-84.2910,65.48,11111222 
COMPS,ioos:station:USF.COMPS:SHP:1,2019-05-21T16:54:00,30.0600,-84.2910,66.45,11111222 
COMPS,ioos:station:USF.COMPS:SHP:1,2019-05-21T17:54:00,30.0600,-84.2910,65.18,11111222 
COMPS,ioos:station:USF.COMPS:SHP:1,2019-05-21T18:54:00,30.0600,-84.2910,63.57,11111222 
COMPS,ioos:station:USF.COMPS:SHP:1,2019-05-21T19:54:00,30.0600,-84.2910,58.71,11111222 
COMPS,ioos:station:USF.COMPS:SHP:1,2019-05-21T20:54:00,30.0600,-84.2910,57.56,11111222 
COMPS,ioos:station:USF.COMPS:SHP:1,2019-05-21T21:54:00,30.0600,-84.2910,59.18,11111222 
COMPS,ioos:station:USF.COMPS:SHP:1,2019-05-21T22:54:00,30.0600,-84.2910,54.17,11111222 
COMPS,ioos:station:USF.COMPS:SHP:1,2019-05-21T23:54:00,30.0600,-84.2910,56.06,11111222 
COMPS,ioos:station:USF.COMPS:SHP:1,2019-05-22T00:54:00,30.0600,-84.2910,58.32,11111222 
COMPS,ioos:station:USF.COMPS:SHP:1,2019-05-22T01:54:00,30.0600,-84.2910,58.27,11111222 
COMPS,ioos:station:USF.COMPS:SHP:1,2019-05-22T02:54:00,30.0600,-84.2910,60.43,11111222 
COMPS,ioos:station:USF.COMPS:SHP:1,2019-05-22T03:54:00,30.0600,-84.2910,65.78,11111222 
COMPS,ioos:station:USF.COMPS:SHP:1,2019-05-22T04:54:00,30.0600,-84.2910,69.5,11111222 
COMPS,ioos:station:USF.COMPS:SHP:1,2019-05-22T05:54:00,30.0600,-84.2910,70.59,11111222 
COMPS,ioos:station:USF.COMPS:SHP:1,2019-05-22T06:54:00,30.0600,-84.2910,71.7,11111222 
COMPS,ioos:station:USF.COMPS:SHP:1,2019-05-22T07:54:00,30.0600,-84.2910,66.84,11111222 
COMPS,ioos:station:USF.COMPS:SHP:1,2019-05-22T08:54:00,30.0600,-84.2910,72.8,11111222 
COMPS,ioos:station:USF.COMPS:SHP:1,2019-05-22T09:54:00,30.0600,-84.2910,68.41,11111222 
COMPS,ioos:station:USF.COMPS:SHP:1,2019-05-22T10:54:00,30.0600,-84.2910,66.54,11111222 
COMPS,ioos:station:USF.COMPS:SHP:1,2019-05-22T11:54:00,30.0600,-84.2910,68.04,11111222 
COMPS,ioos:station:USF.COMPS:SHP:1,2019-05-22T12:54:00,30.0600,-84.2910,58.03,11111222 
COMPS,ioos:station:USF.COMPS:SHP:1,2019-05-22T13:54:00,30.0600,-84.2910,58.09,11111222 
COMPS,ioos:station:USF.COMPS:SHP:1,2019-05-22T14:54:00,30.0600,-84.2910,65.13,11111222 
COMPS,ioos:station:USF.COMPS:SHP:1,2019-05-22T15:54:00,30.0600,-84.2910,67.81,11111222 
COMPS,ioos:station:USF.COMPS:SHP:1,2019-05-22T16:54:00,30.0600,-84.2910,70.22,11111222 
COMPS,ioos:station:USF.COMPS:SHP:1,2019-05-22T17:54:00,30.0600,-84.2910,68.89,11111222 
COMPS,ioos:station:USF.COMPS:SHP:1,2019-05-22T18:54:00,30.0600,-84.2910,67.05,11111222 
COMPS,ioos:station:USF.COMPS:SHP:1,2019-05-22T19:54:00,30.0600,-84.2910,58.5,11111222 
COMPS,ioos:station:USF.COMPS:SHP:1,2019-05-22T20:54:00,30.0600,-84.2910,56.43,11111222 
COMPS,ioos:station:USF.COMPS:SHP:1,2019-05-22T21:54:00,30.0600,-84.2910,60.89,11111222 
COMPS,ioos:station:USF.COMPS:SHP:1,2019-05-22T22:54:00,30.0600,-84.2910,58.95,11111222 
COMPS,ioos:station:USF.COMPS:SHP:1,2019-05-22T23:54:00,30.0600,-84.2910,59.21,11111222 
COMPS,ioos:station:USF.COMPS:SHP:1,2019-05-23T00:54:00,30.0600,-84.2910,59.2,11111222 
COMPS,ioos:station:USF.COMPS:SHP:1,2019-05-23T01:54:00,30.0600,-84.2910,60.52,11111222 
COMPS,ioos:station:USF.COMPS:SHP:1,2019-05-23T02:54:00,30.0600,-84.2910,62.81,11111222 
COMPS,ioos:station:USF.COMPS:SHP:1,2019-05-23T03:54:00,30.0600,-84.2910,65.69,11111222 
COMPS,ioos:station:USF.COMPS:SHP:1,2019-05-23T05:54:00,30.0600,-84.2910,68.56,11111222 
COMPS,ioos:station:USF.COMPS:SHP:1,2019-05-23T06:54:00,30.0600,-84.2910,66.7,11111222 
COMPS,ioos:station:USF.COMPS:SHP:1,2019-05-23T07:54:00,30.0600,-84.2910,65.87,11111222 
COMPS,ioos:station:USF.COMPS:SHP:1,2019-05-23T08:54:00,30.0600,-84.2910,67.25,11111222 
COMPS,ioos:station:USF.COMPS:SHP:1,2019-05-23T09:54:00,30.0600,-84.2910,64.89,11111222 
COMPS,ioos:station:USF.COMPS:SHP:1,2019-05-23T10:54:00,30.0600,-84.2910,68.24,11111222 
COMPS,ioos:station:USF.COMPS:SHP:1,2019-05-23T11:54:00,30.0600,-84.2910,68.85,11111222 
COMPS,ioos:station:USF.COMPS:SHP:1,2019-05-23T12:54:00,30.0600,-84.2910,73.44,11111222 
COMPS,ioos:station:USF.COMPS:SHP:1,2019-05-23T13:54:00,30.0600,-84.2910,69.4,11111222 
COMPS,ioos:station:USF.COMPS:SHP:1,2019-05-23T14:54:00,30.0600,-84.2910,64.58,11111222 
COMPS,ioos:station:USF.COMPS:SHP:1,2019-05-23T15:54:00,30.0600,-84.2910,62.68,11111222 
COMPS,ioos:station:USF.COMPS:SHP:1,2019-05-23T16:54:00,30.0600,-84.2910,60.5,11111222 
COMPS,ioos:station:USF.COMPS:SHP:1,2019-05-23T17:54:00,30.0600,-84.2910,61.01,11111222 
COMPS,ioos:station:USF.COMPS:SHP:1,2019-05-23T18:54:00,30.0600,-84.2910,59.73,11111222 
COMPS,ioos:station:USF.COMPS:SHP:1,2019-05-23T19:54:00,30.0600,-84.2910,60.16,11111222 
COMPS,ioos:station:USF.COMPS:SHP:1,2019-05-23T20:54:00,30.0600,-84.2910,60.22,11111222 
COMPS,ioos:station:USF.COMPS:SHP:1,2019-05-23T21:54:00,30.0600,-84.2910,61.07,11111222 
COMPS,ioos:station:USF.COMPS:SHP:1,2019-05-23T22:54:00,30.0600,-84.2910,58.14,11111222 
COMPS,ioos:station:USF.COMPS:SHP:1,2019-05-23T23:54:00,30.0600,-84.2910,55.19,11111222 